Mobridge, SD

5:54 PM CST on January 20, 2018 (GMT -0600)
Mobridge Municipal

Weather History for KMBG - March, 2015

Change the Weather History Date:

Sunday, March 29, 2015

  Actual Average Record
Temperature  
Mean Temperature 51 °F 38 °F  
Max Temperature 62 °F 49 °F 76 °F (1967)
Min Temperature 40 °F 26 °F -5 °F (1964)
Degree Days  
Heating Degree Days 14 27  
Month to date heating degree days 787 974  
Since 1 July heating degree days 6546 6949  
Cooling Degree Days 0 0  
Month to date cooling degree days 0 0  
Year to date cooling degree days 0 0  
Growing Degree Days 1 (Base 50)    
Moisture  
Dew Point 33 °F    
Average Humidity 54    
Maximum Humidity 83    
Minimum Humidity 25    
Precipitation  
Precipitation 0.03 in 0.03 in 0.96 in (1977)
Month to date precipitation 0.17 0.81  
Year to date precipitation 0.97 1.54  
Snow  
Snow 0.00 in - - ()
Month to date snowfall T  
Since 1 July snowfall 18.7  
Snow Depth 0.00 in    
Sea Level Pressure  
Sea Level Pressure 29.92 in    
Wind  
Wind Speed 17 mph (NW)    
Max Wind Speed 39 mph    
Max Gust Speed 48 mph    
Visibility 10 miles    
Events Rain    
T = Trace of Precipitation, MM = Missing Value Source: NWS Daily Summary

Daily Weather History Graph

Daily Weather History Graph

Search for Another Location

Airport or City:

Trip Planner

Search our weather history database for the weather conditions in past years. The results will help you decide how hot, cold, wet, or windy it might be!

Date:

Astronomy

Mar. 29, 2015 Rise Set
Actual Time 7:27 AM CDT 8:05 PM CDT
Civil Twilight 6:58 AM CDT 8:35 PM CDT
Nautical Twilight 6:22 AM CDT 9:11 PM CDT
Astronomical Twilight 5:46 AM CDT 9:47 PM CDT
Moon 2:49 PM CDT (3/29) 4:30 AM CDT (3/29)
Length of Visible Light 13h 37m
Length of Day
12h 37m
Waxing Gibbous, 72% of the Moon is Illuminated
Mar 29
Waxing Gibbous
Apr 4
Full
Apr 11
Last Quarter
Apr 18
New
Apr 25
First Quarter

Hourly Weather History & Observations

Time (CDT) Temp. Windchill Dew Point Humidity Pressure Visibility Wind Dir Wind Speed Gust Speed Precip Events Conditions
12:52 AM 48.9 °F - 43.0 °F 80% 29.66 in 10.0 mi NW 16.1 mph - N/A   Partly Cloudy
1:52 AM 45.0 °F 40.1 °F 39.9 °F 82% 29.66 in 10.0 mi WNW 9.2 mph - N/A   Clear
2:52 AM 44.1 °F 38.6 °F 37.9 °F 79% 29.67 in 10.0 mi West 10.4 mph - N/A   Clear
3:52 AM 48.0 °F - 37.0 °F 66% 29.66 in 10.0 mi WNW 19.6 mph 26.5 mph N/A   Overcast
4:52 AM 46.0 °F 37.8 °F 39.9 °F 79% 29.68 in 9.0 mi WNW 23.0 mph 38.0 mph 0.00 in Rain Light Rain
5:52 AM 43.0 °F 32.9 °F 37.9 °F 82% 29.76 in 10.0 mi NW 27.6 mph 46.0 mph 0.03 in Rain Light Rain
6:08 AM 43.0 °F 32.2 °F 37.9 °F 82% 29.78 in 10.0 mi NW 32.2 mph 43.7 mph 0.00 in   Overcast
6:52 AM 43.0 °F 32.4 °F 37.9 °F 82% 29.85 in 10.0 mi NW 31.1 mph 44.9 mph 0.00 in   Overcast
7:52 AM 42.1 °F 31.1 °F 36.0 °F 79% 29.93 in 10.0 mi NNW 31.1 mph 43.7 mph N/A   Overcast
8:52 AM 41.0 °F 30.2 °F 34.0 °F 76% 30.01 in 10.0 mi NNW 27.6 mph 36.8 mph N/A   Overcast
9:13 AM 42.1 °F 31.9 °F 33.1 °F 70% 29.99 in 10.0 mi NNW 26.5 mph 35.7 mph N/A   Scattered Clouds
9:52 AM 45.0 °F 35.6 °F 34.0 °F 65% 30.02 in 10.0 mi NNW 27.6 mph 36.8 mph N/A   Clear
10:52 AM 48.0 °F - 34.0 °F 58% 30.06 in 10.0 mi NW 21.9 mph 31.1 mph N/A   Clear
11:52 AM 52.0 °F - 28.9 °F 41% 30.06 in 10.0 mi NNW 27.6 mph 34.5 mph N/A   Clear
12:52 PM 55.0 °F - 30.0 °F 38% 30.07 in 10.0 mi NW 17.3 mph 27.6 mph N/A   Clear
1:52 PM 57.0 °F - 26.1 °F 30% 30.08 in 10.0 mi WNW 20.7 mph 27.6 mph N/A   Clear
2:52 PM 59.0 °F - 25.0 °F 27% 30.04 in 10.0 mi NW 19.6 mph 27.6 mph N/A   Clear
3:52 PM 60.1 °F - 25.0 °F 26% 30.02 in 10.0 mi WNW 18.4 mph 25.3 mph N/A   Clear
4:52 PM 61.0 °F - 28.9 °F 30% 30.01 in 10.0 mi NW 18.4 mph 24.2 mph N/A   Clear
5:52 PM 61.0 °F - 30.0 °F 31% 30.00 in 10.0 mi WNW 12.7 mph - N/A   Clear
6:52 PM 61.0 °F - 30.9 °F 32% 29.99 in 10.0 mi NW 12.7 mph - N/A   Clear
7:52 PM 53.1 °F - 30.0 °F 41% 29.99 in 10.0 mi NNW 3.5 mph - N/A   Clear
8:52 PM 44.1 °F 41.5 °F 30.0 °F 58% 30.01 in 10.0 mi North 4.6 mph - N/A   Clear
9:52 PM 42.1 °F - 30.0 °F 62% 30.00 in 10.0 mi Calm Calm - N/A   Clear
10:52 PM 43.0 °F - 30.9 °F 62% 29.99 in 10.0 mi Calm Calm - N/A   Clear
11:52 PM 43.0 °F 39.5 °F 30.9 °F 62% 29.98 in 10.0 mi ESE 5.8 mph - N/A   Clear